TimeEDT,TemperatureF,Dew PointF,Humidity,Sea Level PressureIn,VisibilityMPH,Wind Direction,Wind SpeedMPH,Gust SpeedMPH,PrecipitationIn,Events,Conditions,WindDirDegrees,DateUTC
12:18 AM,42.8,41.0,93,29.48,10.0,SW,4.6,-,N/A,,Scattered Clouds,220,2012-10-31 04:18:00
12:39 AM,42.8,41.0,93,29.48,10.0,Calm,Calm,-,N/A,,Scattered Clouds,0,2012-10-31 04:39:00
1:00 AM,42.8,41.0,93,29.49,10.0,Calm,Calm,-,N/A,,Mostly Cloudy,0,2012-10-31 05:00:00
1:21 AM,42.8,41.0,93,29.49,10.0,Calm,Calm,-,N/A,,Overcast,0,2012-10-31 05:21:00
1:42 AM,42.8,41.0,93,29.49,10.0,Calm,Calm,-,N/A,,Overcast,0,2012-10-31 05:42:00
2:03 AM,42.8,41.0,93,29.49,10.0,Calm,Calm,-,N/A,,Scattered Clouds,0,2012-10-31 06:03:00
2:24 AM,42.8,41.0,93,29.50,10.0,Calm,Calm,-,N/A,,Scattered Clouds,0,2012-10-31 06:24:00
4:12 AM,42.8,41.0,93,29.51,10.0,SSW,4.6,-,N/A,,Scattered Clouds,200,2012-10-31 08:12:00
4:33 AM,42.8,41.0,93,29.52,10.0,SSW,3.5,-,N/A,,Mostly Cloudy,210,2012-10-31 08:33:00
4:54 AM,42.8,41.0,93,29.52,10.0,SW,3.5,-,N/A,,Overcast,220,2012-10-31 08:54:00
5:15 AM,42.8,41.0,93,29.53,10.0,Calm,Calm,-,N/A,,Mostly Cloudy,0,2012-10-31 09:15:00
5:33 AM,42.8,41.0,93,29.54,10.0,SSW,3.5,-,N/A,,Overcast,200,2012-10-31 09:33:00
5:50 AM,42.8,41.0,93,29.54,10.0,Calm,Calm,-,N/A,,Mostly Cloudy,0,2012-10-31 09:50:00
6:45 AM,44.6,41.0,87,29.55,10.0,Calm,Calm,-,N/A,,Mostly Cloudy,0,2012-10-31 10:45:00
7:50 AM,42.8,39.2,87,29.56,10.0,South,4.6,-,N/A,,Mostly Cloudy,190,2012-10-31 11:50:00
8:45 AM,44.6,41.0,87,29.57,10.0,SSW,5.8,-,N/A,,Mostly Cloudy,200,2012-10-31 12:45:00
9:45 AM,44.6,41.0,87,29.59,10.0,SW,5.8,-,N/A,,Overcast,220,2012-10-31 13:45:00
10:50 AM,46.4,41.0,81,29.59,10.0,SW,6.9,-,N/A,,Mostly Cloudy,230,2012-10-31 14:50:00
11:55 AM,48.2,39.2,71,29.59,10.0,SW,6.9,-,N/A,,Mostly Cloudy,230,2012-10-31 15:55:00
12:55 PM,50.0,39.2,66,29.58,10.0,SSW,8.1,-,N/A,,Overcast,210,2012-10-31 16:55:00
1:50 PM,50.0,39.2,66,29.57,10.0,SW,4.6,-,N/A,,Overcast,220,2012-10-31 17:50:00
2:50 PM,51.8,39.2,62,29.57,10.0,SW,3.5,-,N/A,,Overcast,230,2012-10-31 18:50:00
3:45 PM,51.8,37.4,58,29.58,10.0,Calm,Calm,-,N/A,,Overcast,0,2012-10-31 19:45:00
4:45 PM,51.8,39.2,62,29.58,10.0,Calm,Calm,-,N/A,,Overcast,0,2012-10-31 20:45:00
5:55 PM,50.0,41.0,71,29.61,10.0,Calm,Calm,-,N/A,,Overcast,0,2012-10-31 21:55:00
6:45 PM,50.0,44.6,82,29.62,10.0,Calm,Calm,-,N/A,,Overcast,0,2012-10-31 22:45:00
7:51 PM,48.2,41.0,76,29.63,10.0,WNW,5.8,-,N/A,,Overcast,290,2012-10-31 23:51:00
8:50 PM,50.0,37.4,62,29.65,10.0,NE,3.5,-,N/A,,Overcast,40,2012-11-01 00:50:00
9:50 PM,50.0,37.4,62,29.66,10.0,West,8.1,-,N/A,,Overcast,260,2012-11-01 01:50:00
10:12 PM,50.0,35.6,58,29.66,10.0,WSW,8.1,-,N/A,,Mostly Cloudy,250,2012-11-01 02:12:00
10:33 PM,50.0,35.6,58,29.66,10.0,WSW,11.5,-,N/A,,Mostly Cloudy,240,2012-11-01 02:33:00
11:36 PM,48.2,35.6,62,29.65,10.0,WSW,6.9,-,N/A,,Clear,250,2012-11-01 03:36:00
11:57 PM,48.2,35.6,62,29.65,10.0,WSW,5.8,-,N/A,,Scattered Clouds,240,2012-11-01 03:57:00